Weather in Munster

Germany     52°58′57″N   10°05′13″E
В апреле 2022 года жителям России запретили посещать сайт meteo.paraplan.net по решению Генеральной прокуратуры. Аудитория сайта уменьшилась в 10 раз. Владельцы сайта не видят смысла в поддержке погодного сервера в таких условиях. Сайт будет закрыт в октябре.
temp.,
°C
wind,
m/s
gust,
m/s
humid.,
%
clouds,
%
prec.,
mm/h
press.,
hPa
HPBL,
m
3 october, mon
mon323:00+10wnw412935 0.0 1019507
02:00+10wnw412964 0.1 1021516
05:00+9w411975 0.0 1022383
08:00+9w311964 0.0 1023365
11:00+14wnw597437 0.0 1024930
14:00+16wnw6970100 0.1 10241104
17:00+15nw597431 0.1 10231035
20:00+12wnw31091100 0.1 1023513
4 october, tue
tue423:00+10w289783 0.0 1023239
02:00+9w279774 0.0 1023159
05:00+9wsw259889 0.0 1022124
08:00+9sw259586 0.0 1021128
11:00+13sw357685 0.0 1021385
14:00+17sw46555 0.0 1020983
17:00+18sw36557 0.0 10181006
20:00+12ssw3873100 0.0 1018154
5 october, wed
wed523:00+12ssw2877100 0.0 1018201
02:00+12ssw31176100 0.0 1017317
05:00+12ssw4127899 0.0 1016346
08:00+12ssw41373100 0.0 1015415
11:00+15ssw41364100 0.0 1015608
14:00+19ssw51256100 0.0 1014913
17:00+19sw6135795 0.0 10121164
20:00+18sw614594 0.0 10141118
6 october, thu
thu623:00+18wsw71561100 0.0 10151372
02:00+14w41176100 0.2 10191053
05:00+12w511760 0.0 10221025
08:00+11wsw512790 0.0 1025860
11:00+14w610600 0.0 10271193
14:00+16wsw69510 0.0 10281442
17:00+16wsw49551 0.0 10281435
20:00+12sw311705 0.0 1029342
7 october, fri
fri723:00+10sw310796 0.0 1029280
02:00+9sw39875 0.0 1028223
05:00+8ssw388940 0.0 1027194
08:00+7ssw398485 0.0 1026208
11:00+12sw4957100 0.0 1025468
14:00+16sw58435 0.0 1022981
17:00+16sw48505 0.0 10201107
20:00+10sw310714 0.0 1020237